Location: Innsbruck
(47.2657°N, 11.3914°E)
Time: 10:44:09
(UTC+01:00)

XW-2F - Pass Details

Date: 14 December 2021
Orbit: 495 x 515 km, 97.5° (Epoch: 15 January)

Event Time Altitude Azimuth Distance (km) Brightness Sun altitude
Rises 06:40:16 0° 11° (N) 2,645 ? -11.8°
Reaches altitude 10° 06:42:22 10° 10° (N) 1,751 ? -11.5°
Maximum altitude 06:46:09 79° 286° (WNW) 529 ? -10.9°
Drops below altitude 10° 06:49:52 10° 198° (SSW) 1,725 ? -10.3°
Sets 06:51:56 0° 198° (SSW) 2,602 ? -10.0°
